RADUGA 8 [-]

Last updated on March 31, 2020, 4:59 a.m. UTC

1 12351U 81027A   20090.50952104 -.00000358  00000-0  00000-0 0  9994
2 12351  11.4994 314.2755 0081065 204.1535 331.5599  1.00387363 99766
UTC
Height (km)
Latitude
Longitude
Inclination
Orbital Period
UTC large
Height (km)
Speed (km/s)
/
Latitude / Longitude
Inclination (degrees)
Orbital Period (minutes)
Azimuth
Elevation
Range (km)
Doppler Factor
iOS Compass Heading
iOS Angle

Next 30 passes for location: Hong Kong

Rise time Rise Azimuth (degrees) Set time Set Azimuth (degrees) Duration Max altitude (degrees)

No matching passes for this satellites